Location: Bonny Doon Airfield
(37.0704°N, 122.1252°W)
Time: 23:01:34
(UTC-07:00)

ISS - Pass Details

Date: 09 October 2017
Orbit: 401 x 408 km, 51.6° (Epoch: 17 October)

Event Time Altitude Azimuth Distance (km) Brightness Sun altitude
Rises 20:40:12 0° 319° (NW) 2,325 0.8 -24.8°
Reaches altitude 10° 20:42:33 10° 334° (NNW) 1,464 -0.6 -25.3°
Enters shadow 20:43:07 13° 341° (NNW) 1,283 -1.0 -25.4°
